Regional Weather Roundup
Issued by NWS Newport/Morehead, NC

Home | Current Version | Previous Version | Text Only | Print | Product List | Glossary On
Versions: 1 2 3 4 5 6 7 8 9 10 11 12 13 14 15 16 17 18 19 20 21 22 23 24 25 26 27 28 29 30 31 32 33 34 35 36 37 38 39 40 41 42 43 44 45 46 47 48 49 50
000
ASUS42 KMHX 300325
RWRMHX
WEATHER ROUNDUP FOR EASTERN NORTH CAROLINA
NATIONAL WEATHER SERVICE NEWPORT/MOREHEAD CITY NC
1100 PM EDT FRI MAY 29 2015

NOTE: "FAIR" INDICATES FEW OR NO CLOUDS BELOW 12,000 FEET
WITH NO SIGNIFICANT WEATHER AND/OR OBSTRUCTIONS TO VISIBILITY

NCZ015>017-031-032-045>047-102-103-300400-
NORTH COAST

CITY           SKY/WX    TMP DP  RH WIND       PRES   REMARKS
EDENTON        CLEAR     73  68  84 S7        30.23F
ELIZABETH CITY CLEAR     73  70  90 S7        30.23S
KITTY HAWK       N/A     72  68  88 SE5       30.23S
MANTEO         CLEAR     72  69  90 SE6       30.24S

$$

NCZ045>047-081-094-103-104-300400-
CENTRAL COAST

CITY           SKY/WX    TMP DP  RH WIND       PRES   REMARKS
FRISCO         PTCLDY    75  66  73 SE9       30.23S
SWANQUARTER      N/A     73 N/A N/A SE5       30.21S

$$

NCZ095-097-098-100-101-300400-
SOUTHERN COAST

CITY           SKY/WX    TMP DP  RH WIND       PRES   REMARKS
BEAUFORT       PTCLDY    74  67  78 SE7       30.22S
CEDAR ISLAND     N/A     75 N/A N/A E9G15     30.27S
JACKSONVILLE   CLEAR     73  68  84 SE7       30.21S
PINEY ISLAND   CLEAR    N/A N/A N/A S6        30.22S
WILMINGTON     CLEAR     75  68  78 E3        30.21R


$$

NCZ011>013-027>030-043-044-078>080-089-090>093-098-300400-
COASTAL PLAIN

CITY           SKY/WX    TMP DP  RH WIND       PRES   REMARKS
AHOSKIE        CLEAR     70  66  87 S3        30.23S
CLINTON        PTCLDY    72  68  87 CALM      30.22R
ELIZABETHTOWN  CLEAR     71  65  83 CALM      30.21F
GOLDSBORO      PTCLDY    74  67  79 CALM      30.20R
GREENVILLE     CLEAR     73  68  83 SE6       30.23F
HAVELOCK       CLEAR     70  66  87 CALM      30.23S
KENANSVILLE    CLEAR     68  65  90 CALM      30.23S
KINSTON        CLEAR     74  67  79 SE5       30.23S
NEW BERN       CLEAR     70  66  87 CALM      30.23S
RICHLANDS      CLEAR     68  63  83 CALM      30.22F
ROCKY MOUNT    CLEAR     75  67  76 S3        30.22R
WASHINGTON     CLEAR     71  67  86 CALM      30.23F
WHITEVILLE     CLEAR     69  66  89 CALM      30.21S

$$

AMZ130-135-150-152-154-156-158-170-250-252-270-ANZ085-086-088-633-658-670-300400-
MARINE OBSERVATIONS

STATION/POSITION TIME  TEMP    WIND        PRES    WAVE   SWELL
                       AIR SEA DIR/SP/G            HT/PER HT/PER
                 (UTC) (F)     (DEG/KT/KT) (MB)    (FT/S) (FT/S)
CHESAPEAKE LIGHT 0300   68     150/ 15/ 16 1024.3
64 E VA BEACH    0250   69 67  120/ 10/ 10 1023.6    3/ 9   3/ 9
DUCK             0300   70 59  140/  7/  8 1022.8
2 E DUCK         0211      67                N/A     3/ 9
OREGON INLET     0300   73 77  100/  5/  8 1023.8
13E OREGON INLT  0200      75                N/A     3/ 9
HATTERAS CG      0300   76 78  120/  7/ 11 1023.1
DIAMOND BUOY     0250   76 80  120/ 12/ 16 1023.6    3/ 9   3/ 9
CAPE LOOKOUT     0300   75     130/  9/ 10 1023.2
BEAUFORT LAB     0300   75 77  140/  6/  9 1022.6
27 SE WRIGHTSVLE 0300      76  140/ 10/ 14   N/A
5 SE WRIGHTSVLE  0208   77 78  140/ 10/ 14 1022.8
225 S CAPE HAT   0250   75 75   90/ 16/ 17 1022.4    6/ 9   5/ 9
41 SE CHARLESTON 0250   77 78   90/ 14/ 17 1021.6    4/ 9   3/ 9

$$


USA.gov is the U.S. government's official web portal to all federal, state and local government web resources and services.